Location: Prince Albert
(53.2000°N, 105.7500°W)
Time: 02:55:14
(UTC-06:00)

Envisat - Visible Passes

Search period start: 01 December 2020 00:00
Search period end: 11 December 2020 00:00
Orbit: 764 x 766 km, 98.1° (Epoch: 30 November)

Date Brightness Start Highest point End Pass type
(mag) Time Alt. Az. Time Alt. Az. Time Alt. Az.
01 Dec 5.4 06:00:06 10° NE 06:04:09 23° E 06:08:11 10° SE visible
01 Dec 3.0 07:38:34 10° N 07:43:37 64° WNW 07:48:38 10° SSW visible
01 Dec 5.2 19:00:26 10° SSW 19:04:43 27° W 19:09:02 10° NW visible
02 Dec 6.2 05:24:52 10° ENE 05:26:49 12° E 05:28:45 10° ESE visible
02 Dec 3.3 07:01:43 10° NNE 07:06:49 69° ESE 07:11:52 10° S visible
02 Dec 4.0 18:22:42 10° S 18:27:38 51° W 18:32:36 10° NNW visible
03 Dec 4.6 06:25:07 10° NNE 06:29:49 36° E 06:34:29 10° SSE visible
03 Dec 3.4 08:04:10 10° N 08:08:55 41° WNW 08:13:40 10° SW visible
03 Dec 3.0 17:45:39 10° SSE 17:50:44 85° ENE 17:55:52 10° NNW visible
03 Dec 5.9 19:27:07 10° SW 19:30:27 17° W 19:33:48 10° NW visible
04 Dec 5.6 05:49:00 10° NE 05:52:38 19° E 05:56:14 10° SE visible
04 Dec 2.9 07:27:09 10° NNE 07:32:15 77° WNW 07:37:19 10° SSW visible
04 Dec 4.9 18:48:41 10° SSW 18:53:13 32° W 18:57:48 10° NNW visible
05 Dec 3.7 06:50:21 10° NNE 06:55:23 57° E 07:00:23 10° S visible
05 Dec 3.6 18:11:10 10° S 18:16:12 62° WSW 18:21:16 10° NNW visible
05 Dec 6.3 19:55:12 10° W 19:56:17 11° W 19:57:22 10° WNW visible
06 Dec 4.9 06:13:52 10° NNE 06:18:20 30° E 06:22:47 10° SSE visible
06 Dec 3.2 07:52:41 10° N 07:57:36 50° WNW 08:02:28 10° SW visible
06 Dec 3.0 17:34:19 10° SSE 17:39:22 71° ENE 17:44:27 10° NNW visible
06 Dec 5.6 19:15:06 10° SW 19:18:54 21° W 19:22:45 10° NW visible
07 Dec 5.9 05:38:00 10° NE 05:41:05 16° E 05:44:09 10° ESE visible
07 Dec 3.0 07:15:44 10° NNE 07:20:52 89° ESE 07:25:57 10° SSW visible
07 Dec 4.5 18:37:00 10° SSW 18:41:45 39° W 18:46:32 10° NNW visible
08 Dec 4.1 06:39:01 10° NNE 06:43:56 47° E 06:48:50 10° S visible
08 Dec 3.7 08:18:20 10° N 08:22:51 33° WNW 08:27:21 10° SW visible
08 Dec 3.2 17:59:42 10° S 18:04:47 76° WSW 18:09:54 10° NNW visible
08 Dec 6.1 19:42:18 10° WSW 19:44:42 13° W 19:47:06 10° NW visible
09 Dec 5.2 06:02:39 10° NE 06:06:50 25° E 06:10:58 10° SE visible
09 Dec 3.0 07:41:14 10° N 07:46:15 60° WNW 07:51:14 10° SSW visible
09 Dec 3.1 17:23:01 10° SSE 17:28:00 59° ENE 17:33:00 10° N visible
09 Dec 5.3 19:03:13 10° SSW 19:07:23 25° W 19:11:36 10° NW visible
10 Dec 6.1 05:27:12 10° NE 05:29:31 13° E 05:31:49 10° ESE visible
10 Dec 3.2 07:04:21 10° NNE 07:09:27 74° ESE 07:14:32 10° S visible
10 Dec 4.1 18:25:23 10° S 18:30:17 48° W 18:35:13 10° NNW visible
